Temperature
23 24 23 22 22 21 21 20 20 20 20 20 20 20 19 19 19 19 19 19 19 19 19 19 19 19 19 19 19 19 19 19 19 19 19 19 19 18 18 17 17 18 18
24 24 23 23 22 22 21 20 20 20 20 20 20 19 19 19 19 19 19 19 19 19 19 19 19 19 19 19 19 19 19 19 19 19 19 19 19 18 18 17 17 18 18
24 24 23 23 22 22 22 21 20 20 20 20 20 19 19 19 19 19 19 19 19 19 19 18 18 18 19 19 19 19 19 19 19 19 18 18 18 18 18 18 18 18 18
24 24 23 23 22 22 22 21 20 20 20 20 20 19 19 19 19 19 19 19 19 19 18 18 18 19 19 19 19 19 19 19 19 18 18 18 18 18 18 18 18 18 18
22 23 23 23 23 22 22 21 21 20 20 20 20 20 19 19 19 19 19 19 19 19 19 18 18 19 19 20 20 20 20 19 19 18 18 18 18 19 19 18 18 18 18
22 23 23 23 22 22 22 22 21 21 20 20 20 20 20 19 19 19 19 19 19 19 19 19 19 19 19 20 20 20 20 19 19 18 18 18 18 19 19 19 18 18 18
22 23 23 23 22 22 22 21 21 21 21 20 20 20 20 20 19 19 19 19 19 19 19 19 19 19 19 20 20 20 20 20 19 19 18 18 19 19 19 19 19 18 18
23 23 23 23 22 22 22 21 21 21 21 21 20 20 20 20 20 19 19 19 19 19 18 19 19 19 19 20 20 20 20 20 19 19 19 19 19 19 19 19 19 19 19
23 23 23 23 22 22 21 21 21 21 21 21 21 21 20 20 20 20 19 19 19 19 18 18 19 19 19 20 20 20 20 20 20 19 19 19 19 19 19 19 19 19 19
24 22 22 22 22 22 22 22 21 21 21 21 21 21 21 21 20 20 20 20 19 19 19 19 19 19 19 19 20 20 20 20 20 20 19 19 19 19 19 19 19 19 19
24 23 22 21 21 21 21 21 21 20 20 20 20 20 20 20 20 20 20 20 20 20 19 19 19 19 19 19 19 19 19 20 20 20 19 20 20 19 19 19 19 19 19
24 23 22 22 21 20 20 20 20 20 20 20 19 19 19 20 19 19 19 20 20 20 20 19 19 19 19 19 19 19 19 19 19 19 19 20 20 19 19 19 19 19 19
23 22 22 21 21 21 20 20 19 19 19 19 19 19 18 18 18 19 19 19 19 19 19 19 19 19 19 19 19 18 19 18 18 19 19 20 20 20 19 19 19 19 19
21 21 21 21 21 20 20 20 19 19 19 19 19 18 18 18 18 18 18 18 18 18 18 19 19 19 19 18 18 18 18 18 18 19 19 19 19 19 19 19 19 19 19
20 20 20 20 20 20 20 20 19 19 19 19 19 18 18 18 18 18 18 18 18 18 18 18 18 18 18 18 18 18 18 18 18 19 19 19 19 19 19 19 19 19 19
19 19 19 19 19 19 19 18 18 18 18 18 18 18 18 18 18 18 18 18 18 18 17 17 17 17 17 17 18 18 18 18 18 19 18 18 18 18 19 19 19 19 19
18 18 18 18 18 18 18 18 17 17 17 17 17 17 17 17 17 17 17 17 17 17 17 17 17 17 17 17 17 18 18 18 18 18 18 18 18 18 18 18 19 19 19
18 18 18 18 18 17 17 17 17 17 17 17 17 17 17 17 17 17 16 16 16 16 16 16 16 17 17 17 17 17 17 18 18 18 18 18 18 18 18 18 18 18 19
17 17 17 17 17 17 17 17 17 17 17 17 16 16 16 16 16 16 16 16 16 16 16 16 16 16 16 16 16 17 17 17 18 18 18 18 17 17 17 18 18 18 18
17 17 17 17 17 17 17 17 16 16 16 16 16 16 16 16 15 15 16 16 15 15 15 15 15 15 16 16 16 16 17 17 17 17 18 17 17 17 17 17 18 18 18
17 17 17 16 16 16 16 16 16 16 16 16 16 16 15 15 15 15 15 15 15 15 15 15 15 15 15 15 15 16 16 17 17 17 18 17 17 17 17 17 17 18 18
18 17 17 16 16 15 15 15 15 15 15 16 16 16 15 15 15 14 15 15 15 15 15 15 15 15 15 15 15 16 16 17 17 18 18 18 17 17 17 17 17 17 17
18 18 17 16 15 15 14 14 14 14 15 15 15 15 15 15 14 14 14 15 15 15 15 15 15 15 15 15 15 16 16 17 18 18 18 18 18 18 18 18 18 17 17
18 18 17 16 15 14 14 13 13 13 13 14 14 14 14 14 14 14 14 14 14 14 15 15 15 15 15 15 15 16 16 17 17 18 18 18 18 18 18 18 18 17 17
18 17 17 16 15 14 13 13 12 12 12 12 13 13 13 14 14 14 14 14 14 14 14 14 14 15 15 15 15 15 16 16 17 17 18 18 18 18 17 18 18 18 17
18 17 17 16 15 14 13 12 12 12 12 12 12 12 13 13 14 14 14 14 14 14 14 14 14 14 14 15 15 15 15 16 17 18 18 18 18 18 17 17 17 17 17
Wind_Speed
19 19 21 19 17 15 14 13 13 13 13 12 11 11 11 10 10 10 9 9 9 9 9 9 9 8 8 8 9 10 10 10 11 12 13 14 13 12 11 10 13 17 17
22 21 21 19 18 16 14 13 13 13 13 12 12 11 11 11 10 10 9 8 8 8 9 9 9 9 8 8 9 9 9 8 8 9 11 12 12 11 11 11 15 16 16
22 21 21 19 18 16 15 14 13 13 13 13 12 12 11 11 11 10 9 9 8 8 8 9 9 10 9 9 8 8 7 6 6 6 8 11 12 11 12 15 17 16 15
21 19 19 20 18 16 15 14 13 13 13 13 12 11 11 11 10 10 9 9 8 8 8 8 9 10 10 9 8 8 6 5 5 5 7 8 13 12 11 13 14 14 14
19 18 20 20 18 16 15 14 13 12 12 12 11 11 10 10 10 9 9 9 8 8 8 8 9 9 10 9 9 8 7 6 6 8 5 11 15 13 11 11 12 13 13
19 19 20 19 18 16 15 13 12 11 11 11 10 10 10 9 9 9 9 9 9 8 8 9 9 9 9 9 9 8 7 7 7 10 9 13 14 14 12 11 10 11 11
20 19 19 18 17 15 14 13 12 11 11 10 10 10 9 9 9 9 10 10 10 10 9 10 10 10 10 9 9 9 8 8 10 10 7 15 17 16 13 12 10 10 10
21 18 18 18 16 15 14 13 12 11 11 10 10 10 9 9 10 10 11 11 11 10 10 11 11 10 10 10 9 9 9 10 11 12 8 16 21 19 15 13 12 11 11
22 19 16 16 15 14 13 13 12 12 12 11 11 11 11 11 11 11 11 12 12 11 11 11 12 11 11 10 10 10 10 12 12 13 8 15 23 21 17 15 13 13 13
19 18 16 15 15 14 14 15 15 14 13 13 12 13 13 13 13 13 13 14 14 14 13 13 13 13 12 12 12 12 12 11 12 15 11 14 26 23 20 17 15 14 14
12 12 12 13 13 12 14 16 15 13 13 12 12 14 13 12 14 15 18 18 18 17 16 15 15 15 14 15 15 15 13 11 13 14 13 17 28 25 22 19 17 16 16
7 8 6 8 7 4 4 12 12 12 14 14 13 14 13 13 13 15 19 24 23 21 19 18 18 17 16 14 17 18 13 15 15 14 13 22 26 25 23 21 19 18 19
8 9 8 9 9 9 6 3 2 5 8 14 14 12 12 11 11 11 8 14 19 19 16 17 18 16 16 14 12 15 16 15 14 15 13 26 27 25 24 22 20 19 19
12 12 13 13 11 11 8 6 4 4 3 1 3 7 6 4 5 5 4 4 9 12 11 11 10 14 15 16 14 11 15 13 12 11 12 25 27 26 24 22 21 20 19
14 13 13 12 11 9 8 7 7 6 5 6 4 3 4 4 5 7 6 5 7 9 7 8 8 11 12 10 10 10 9 12 12 9 8 21 24 24 24 22 21 21 21
13 12 10 10 9 8 6 6 5 5 4 5 4 5 5 5 5 6 8 9 7 7 6 6 9 9 9 9 10 9 8 8 9 9 9 16 22 23 24 23 23 23 22
10 10 9 7 8 7 6 7 6 5 6 4 4 6 6 6 5 6 7 8 7 8 7 6 7 6 8 8 9 9 8 7 7 7 10 12 16 23 25 25 25 25 24
9 8 8 9 9 7 6 6 5 5 5 4 5 5 5 6 6 6 7 7 6 5 6 7 7 7 8 8 7 7 7 7 8 7 8 11 12 16 22 26 27 26 26
7 6 6 7 8 8 7 7 6 4 4 4 4 3 4 6 6 4 5 5 4 4 5 8 7 7 9 9 9 9 8 8 8 9 9 10 13 15 17 24 28 27 27
7 6 6 6 6 7 6 6 6 6 5 5 3 2 4 5 5 4 4 3 3 3 3 5 7 6 6 7 10 10 9 9 8 9 10 10 11 15 18 19 21 23 26
5 4 3 4 6 6 5 7 7 6 6 6 5 2 3 5 5 4 4 3 3 2 3 3 4 5 5 6 6 6 6 9 9 8 9 9 11 13 16 17 17 16 18
4 3 3 6 7 7 7 7 7 7 7 7 4 4 4 5 5 6 4 4 3 3 3 3 2 3 3 4 4 4 4 6 8 11 10 10 11 10 12 14 15 16 15
4 5 6 5 6 8 9 8 9 8 8 7 7 5 4 5 6 5 5 4 4 4 3 4 3 2 2 3 4 4 3 3 4 7 9 9 9 7 6 7 10 14 15
6 6 6 5 6 6 8 9 11 10 10 10 8 7 9 8 7 5 4 4 4 4 4 5 5 3 3 4 4 4 5 1 2 0 4 6 8 7 6 6 9 9 12
7 7 5 4 4 5 6 9 10 10 9 9 10 11 10 9 8 6 3 2 4 4 4 4 4 4 3 4 4 4 5 5 5 2 3 4 5 6 5 4 3 5 8
6 6 6 6 5 6 7 8 9 9 9 11 12 11 9 7 6 6 4 1 2 3 4 4 4 5 5 6 6 5 4 4 4 4 4 4 6 6 7 5 4 4 4
Wind_Direction
123 132 136 132 128 124 124 130 139 143 142 140 136 133 129 125 122 118 116 114 115 117 118 121 125 117 104 92 85 84 84 84 85 86 86 87 87 86 84 92 110 98 103
126 133 136 134 133 129 127 129 137 145 148 146 143 142 141 138 136 134 133 132 132 131 129 129 130 127 118 108 100 98 96 98 101 106 109 101 91 83 72 78 100 108 107
124 133 137 137 137 135 133 132 137 144 150 151 149 148 148 147 147 147 147 148 149 146 141 138 135 133 128 121 116 114 115 120 130 141 154 128 109 92 84 91 103 111 111
127 139 140 140 140 139 138 137 140 144 148 151 152 152 151 152 154 156 158 161 163 158 154 150 146 142 138 135 134 134 139 152 166 187 215 151 124 109 101 103 110 114 115
130 134 135 143 143 144 144 145 146 146 148 152 155 158 160 162 165 167 168 172 175 172 168 164 158 154 151 150 151 154 163 185 201 227 226 106 113 126 118 114 117 120 123
130 132 140 144 146 148 150 152 154 154 155 158 162 167 171 174 176 178 178 182 184 184 180 175 167 165 165 164 165 171 185 209 227 229 204 135 129 139 135 130 125 125 129
134 132 142 146 148 152 155 159 162 164 166 170 174 177 182 187 190 193 193 193 194 193 191 182 174 173 174 177 181 187 202 226 245 255 182 138 141 149 149 147 142 138 136
129 132 139 147 151 157 162 166 170 173 177 181 184 187 192 197 201 205 205 203 202 202 193 187 184 183 186 190 197 203 214 237 239 253 185 143 151 155 158 161 160 158 155
127 132 144 151 157 164 170 175 179 184 188 191 194 196 201 206 210 212 212 209 208 207 199 194 194 195 198 203 209 215 224 239 270 278 235 150 156 158 162 170 175 174 171
126 136 150 159 160 171 180 186 188 192 196 200 204 206 209 213 217 218 217 212 210 208 205 204 206 208 208 211 216 221 227 240 252 262 258 164 160 162 166 175 184 187 184
117 135 152 153 161 181 184 183 189 199 205 208 214 219 219 223 222 218 221 215 211 211 211 213 215 215 215 217 219 220 223 231 237 241 254 177 165 166 170 177 189 196 195
114 104 96 111 134 171 181 158 186 199 201 207 215 210 214 228 238 234 217 215 213 212 213 216 219 219 217 222 219 216 218 224 242 239 230 174 170 170 173 179 190 200 203
95 67 62 58 54 36 30 83 223 215 192 200 219 219 216 229 244 255 244 213 213 213 215 216 218 220 219 221 221 202 212 223 226 237 211 176 173 174 178 183 192 201 207
66 57 50 48 44 33 22 2 344 353 356 303 215 223 233 241 257 267 272 251 214 214 215 219 212 215 222 223 223 207 204 220 235 233 199 179 176 178 182 187 194 202 207
56 50 46 43 41 28 15 352 352 334 324 316 320 272 258 256 260 264 266 262 247 236 225 222 224 219 220 226 227 216 206 214 230 241 193 182 183 184 187 191 197 205 210
50 42 36 39 39 24 3 349 325 313 309 310 327 333 313 287 273 270 268 264 256 252 252 229 232 239 232 228 229 231 223 222 228 235 204 194 193 194 194 196 201 207 212
52 42 25 41 40 21 357 344 325 315 325 331 338 327 316 302 297 287 276 269 259 253 254 249 243 244 245 236 229 234 234 231 234 232 234 219 207 205 203 203 205 207 211
58 51 37 31 24 4 360 339 321 327 328 317 313 316 328 329 316 300 282 274 267 259 250 250 244 244 244 243 235 232 234 229 228 226 233 243 234 221 215 213 209 208 210
68 55 47 43 23 355 350 335 329 323 317 305 308 324 337 323 313 308 301 292 284 264 253 253 244 238 240 240 238 232 230 229 219 222 216 225 235 237 223 218 213 209 211
80 62 40 33 28 351 354 340 342 333 335 323 316 346 337 318 313 302 293 290 287 280 267 256 252 240 238 237 241 239 224 220 213 214 216 217 223 228 227 217 209 211 212
83 67 50 24 21 351 2 341 327 327 330 317 310 4 344 329 325 300 302 297 265 255 266 278 262 247 237 232 237 248 240 221 211 210 212 215 219 221 220 206 194 198 207
73 44 27 25 10 356 359 322 310 329 320 304 327 344 336 339 326 315 299 288 267 256 265 277 267 239 240 227 220 229 233 225 218 212 204 208 216 215 213 195 185 191 197
33 21 24 27 16 10 351 331 339 330 315 321 333 322 345 338 314 309 304 294 281 262 254 246 248 247 252 266 237 228 238 238 220 202 200 201 200 208 210 191 185 187 195
8 6 24 28 32 13 355 340 334 323 321 328 327 328 332 320 302 291 299 311 298 281 263 244 226 218 245 265 279 262 266 289 292 236 197 192 185 195 212 206 194 178 186
357 354 356 12 20 5 350 335 330 324 326 322 322 312 307 298 286 284 279 317 320 304 293 276 264 233 231 249 261 273 270 256 240 235 211 188 184 183 201 204 187 165 176
351 347 346 356 359 357 343 328 320 320 321 315 304 297 300 301 306 312 311 23 322 328 324 305 288 260 238 248 258 266 270 264 246 226 214 198 189 185 178 178 185 168 170
Height
1495 1496 1500 1503 1506 1508 1511 1514 1517 1519 1521 1523 1525 1527 1529 1530 1532 1533 1534 1535 1537 1538 1539 1540 1542 1543 1544 1545 1546 1547 1547 1548 1549 1549 1550 1551 1551 1552 1553 1554 1555 1556 1557
1493 1497 1501 1504 1506 1509 1512 1514 1517 1519 1522 1524 1526 1528 1529 1531 1532 1533 1535 1536 1537 1539 1540 1541 1542 1544 1545 1546 1547 1548 1548 1549 1550 1551 1552 1553 1553 1554 1555 1555 1557 1558 1560
1494 1498 1501 1504 1506 1509 1512 1514 1517 1519 1522 1524 1526 1528 1529 1531 1532 1534 1535 1536 1538 1539 1541 1542 1543 1544 1545 1547 1548 1549 1550 1551 1552 1553 1554 1555 1556 1556 1557 1558 1559 1560 1561
1495 1498 1501 1504 1507 1509 1512 1514 1517 1519 1521 1524 1526 1528 1529 1531 1532 1534 1535 1537 1538 1540 1541 1543 1544 1545 1546 1547 1549 1550 1551 1552 1553 1554 1556 1558 1558 1559 1559 1559 1560 1561 1563
1497 1499 1502 1505 1507 1509 1512 1514 1517 1519 1521 1524 1526 1527 1529 1531 1532 1534 1536 1537 1539 1540 1542 1543 1544 1545 1546 1548 1549 1551 1552 1554 1555 1555 1558 1559 1560 1560 1561 1561 1562 1563 1564
1499 1500 1503 1506 1508 1510 1512 1515 1517 1519 1521 1523 1525 1527 1529 1530 1532 1534 1535 1537 1539 1540 1542 1543 1544 1546 1547 1548 1549 1551 1553 1554 1555 1556 1559 1560 1561 1561 1562 1563 1563 1564 1565
1500 1502 1505 1507 1509 1511 1513 1515 1517 1519 1521 1523 1525 1527 1529 1530 1532 1533 1535 1537 1538 1540 1542 1543 1544 1545 1547 1548 1549 1551 1553 1554 1556 1557 1560 1560 1561 1562 1563 1564 1564 1565 1566
1501 1503 1506 1509 1511 1513 1515 1517 1518 1520 1522 1523 1525 1527 1528 1530 1531 1533 1534 1536 1538 1539 1541 1542 1543 1545 1546 1547 1549 1550 1552 1553 1555 1557 1560 1559 1560 1562 1563 1564 1565 1566 1567
1502 1505 1507 1510 1512 1514 1516 1517 1519 1521 1522 1523 1525 1526 1528 1529 1530 1532 1533 1535 1536 1538 1539 1541 1542 1543 1544 1546 1547 1549 1550 1552 1553 1555 1559 1558 1559 1561 1562 1563 1565 1566 1567
1505 1507 1509 1511 1513 1515 1516 1518 1519 1521 1522 1523 1524 1525 1526 1527 1529 1530 1531 1533 1534 1536 1537 1538 1540 1541 1542 1543 1545 1546 1548 1549 1551 1553 1555 1557 1558 1560 1561 1563 1564 1565 1567
1509 1511 1512 1513 1514 1516 1516 1517 1519 1520 1521 1522 1523 1524 1525 1526 1527 1528 1529 1530 1531 1533 1534 1535 1537 1538 1539 1540 1542 1543 1545 1546 1549 1550 1552 1554 1555 1557 1559 1561 1562 1564 1565
1512 1513 1515 1516 1516 1518 1519 1518 1519 1519 1520 1521 1522 1522 1523 1524 1525 1527 1527 1527 1528 1529 1530 1531 1533 1534 1535 1536 1538 1539 1541 1543 1545 1547 1549 1551 1552 1554 1556 1558 1560 1562 1563
1512 1513 1515 1515 1516 1517 1519 1519 1520 1520 1520 1520 1521 1521 1521 1522 1523 1524 1525 1524 1524 1525 1525 1526 1528 1529 1530 1531 1533 1534 1536 1538 1540 1543 1545 1547 1548 1550 1553 1555 1557 1559 1561
1511 1513 1513 1514 1515 1516 1517 1518 1519 1520 1520 1520 1520 1520 1520 1520 1520 1520 1521 1521 1520 1519 1520 1521 1522 1523 1525 1527 1528 1530 1531 1534 1537 1539 1541 1542 1544 1546 1548 1550 1552 1555 1557
1511 1512 1513 1514 1515 1517 1517 1517 1518 1518 1518 1518 1518 1518 1517 1517 1516 1516 1516 1515 1515 1514 1515 1515 1516 1517 1519 1521 1523 1525 1526 1528 1532 1534 1535 1537 1539 1541 1544 1546 1548 1550 1552
1512 1514 1515 1515 1516 1516 1517 1517 1516 1516 1516 1516 1515 1514 1513 1512 1511 1510 1509 1508 1508 1508 1508 1509 1510 1512 1514 1515 1517 1519 1521 1523 1525 1528 1531 1531 1533 1536 1539 1541 1543 1545 1548
1514 1515 1516 1517 1516 1516 1516 1515 1515 1515 1514 1513 1511 1510 1508 1506 1505 1503 1502 1500 1500 1500 1501 1502 1503 1505 1506 1509 1510 1512 1515 1517 1519 1522 1525 1527 1528 1530 1532 1535 1537 1539 1542
1515 1516 1517 1517 1516 1516 1515 1514 1513 1513 1511 1510 1508 1506 1504 1502 1500 1498 1495 1493 1492 1493 1493 1494 1496 1497 1499 1502 1503 1506 1508 1510 1513 1515 1517 1519 1521 1523 1525 1528 1531 1533 1536
1517 1517 1517 1517 1516 1515 1515 1513 1512 1511 1509 1507 1505 1503 1501 1498 1496 1493 1490 1487 1486 1486 1486 1487 1488 1490 1492 1495 1497 1500 1502 1504 1506 1508 1510 1512 1513 1516 1519 1521 1524 1527 1530
1518 1517 1517 1517 1515 1514 1513 1512 1510 1509 1507 1505 1503 1500 1497 1495 1492 1490 1487 1484 1481 1480 1481 1482 1483 1483 1485 1488 1492 1494 1496 1497 1499 1501 1503 1505 1507 1509 1510 1514 1518 1521 1525
1518 1518 1517 1516 1514 1513 1511 1509 1507 1506 1504 1502 1500 1497 1495 1492 1490 1487 1484 1482 1479 1478 1478 1479 1479 1480 1481 1484 1487 1489 1491 1492 1494 1495 1497 1498 1501 1502 1504 1508 1512 1516 1519
1518 1518 1517 1515 1513 1511 1509 1507 1506 1504 1501 1500 1498 1495 1493 1490 1487 1485 1483 1480 1479 1477 1477 1476 1477 1477 1479 1481 1484 1486 1487 1489 1489 1490 1491 1493 1496 1498 1500 1503 1507 1511 1514
1518 1517 1515 1513 1511 1509 1507 1505 1503 1500 1498 1497 1495 1493 1490 1488 1485 1483 1481 1479 1477 1476 1475 1474 1475 1476 1477 1478 1480 1483 1484 1484 1484 1485 1487 1489 1492 1494 1497 1500 1503 1506 1509
1516 1515 1513 1511 1508 1506 1504 1502 1500 1498 1495 1493 1491 1489 1487 1485 1483 1481 1479 1476 1475 1474 1473 1473 1474 1474 1475 1476 1477 1479 1481 1482 1482 1482 1484 1486 1488 1491 1494 1497 1499 1502 1505
1514 1513 1511 1509 1506 1504 1502 1500 1498 1495 1492 1489 1487 1485 1483 1481 1480 1478 1476 1474 1473 1472 1471 1471 1471 1472 1473 1474 1474 1476 1477 1479 1480 1482 1482 1484 1486 1488 1490 1493 1496 1499 1501
1511 1510 1509 1506 1504 1501 1499 1497 1495 1492 1488 1485 1483 1481 1479 1478 1477 1476 1474 1472 1470 1469 1468 1468 1468 1469 1470 1471 1471 1473 1475 1477 1478 1479 1481 1482 1483 1485 1487 1490 1493 1496 1498